Regional Weather Roundup
Issued by NWS

Home | Current Version | Previous Version | Text Only | Print | Product List | Glossary On
Versions: 1 2 3 4 5 6 7 8 9 10 11 12 13 14 15 16 17 18 19 20 21 22 23 24 25 26 27 28
000
ASUS44 KBMX 210010
RWRAL

ALABAMA REGIONAL WEATHER ROUNDUP
NATIONAL WEATHER SERVICE BIRMINGHAM AL
700 PM CDT SUN APR 20 2014

NOTE: "FAIR" INDICATES FEW OR NO CLOUDS BELOW 12,000 FEET
WITH NO SIGNIFICANT WEATHER AND/OR OBSTRUCTIONS TO VISIBILITY.

THE REMARK "TC" DENOTES TEMPERATURE IN DEGREES CELSIUS.

ALZ001>011-014-016>018-020-210100-
NORTH ALABAMA

CITY           SKY/WX    TMP DP  RH WIND       PRES   REMARKS
MUSCLE SHOALS  CLEAR     70  50  49 S3        30.12F
6HR MIN TEMP:  70; 6HR MAX TEMP:  79;

HUNTSVILLE     PTCLDY    74  46  36 W7        30.11S
6HR MIN TEMP:  74; 6HR MAX TEMP:  80;

DECATUR        CLEAR     74  46  36 W3        30.12S
6HR MIN TEMP:  73; 6HR MAX TEMP:  79;

HALEYVILLE     FAIR      72  48  42 CALM      30.14S
6HR MIN TEMP:  72; 6HR MAX TEMP:  80;

GADSDEN        NOT AVBL
$$

ALZ012-013-022-023-030>036-040>044-210100-
WEST CENTRAL ALABAMA

CITY           SKY/WX    TMP DP  RH WIND       PRES   REMARKS
TUSCALOOSA     PTCLDY    72  49  44 SW3       30.10F
6HR MIN TEMP:  72; 6HR MAX TEMP:  79;

$$

ALZ015-024>027-033>036-040>044-210100-
CENTRAL ALABAMA

CITY           SKY/WX    TMP DP  RH WIND       PRES   REMARKS
BIRMINGHAM     MOCLDY    75  41  29 SE5       30.13S
6HR MIN TEMP:  74; 6HR MAX TEMP:  81;

MONTGOMERY     CLEAR     72  56  57 S3        30.11F
6HR MIN TEMP:  70; 6HR MAX TEMP:  77;

SHELBY CO ARPT PTCLDY    72  49  44 CALM      30.11F
6HR MIN TEMP:  71; 6HR MAX TEMP:  77;

MAXWELL AFB    CLEAR     77  56  49 E5        30.10F
6HR MIN TEMP:  74; 6HR MAX TEMP:  80; 6HR PCP: TRACE;

GREENVILLE     FAIR      69  54  58 CALM      30.11F
6HR MIN TEMP:  65; 6HR MAX TEMP:  73;

$$

ALZ019-021-028-029-037-038-045>048-210100-
EAST CENTRAL ALABAMA

CITY           SKY/WX    TMP DP  RH WIND       PRES   REMARKS
ANNISTON       CLEAR     73  45  36 E3        30.11S
6HR MIN TEMP:  72; 6HR MAX TEMP:  78;

ALEXANDER CITY PTCLDY    74  56  52 CALM      30.13S
6HR MIN TEMP:  73; 6HR MAX TEMP:  78;

AUBURN         CLEAR     68  48  49 NE3       30.16S
6HR MIN TEMP:  66; 6HR MAX TEMP:  72;

$$

ALZ051>064-210100-
SOUTHWEST ALABAMA

CITY           SKY/WX    TMP DP  RH WIND       PRES   REMARKS
MOBILE         PTCLDY    69  55  60 NE7       30.12S
6HR MIN TEMP:  69; 6HR MAX TEMP:  74;

BROOKLEY FIELD CLEAR     69  57  65 E6        30.13S
6HR MIN TEMP:  69; 6HR MAX TEMP:  73;

EVERGREEN      CLEAR     70  55  59 E3        30.13F
6HR MIN TEMP:  63; 6HR MAX TEMP:  73;

$$

ALZ049-050-065>069-210100-
SOUTHEAST ALABAMA

CITY           SKY/WX    TMP DP  RH WIND       PRES   REMARKS
DOTHAN         CLEAR     64  55  72 E3        30.15F
6HR MIN TEMP:  57; 6HR MAX TEMP:  68;

OZARK          CLEAR     63  56  76 NE2       30.12F
6HR MIN TEMP:  59; 6HR MAX TEMP:  65;

TROY           CLEAR     68  55  63 SE3       30.12F
6HR MIN TEMP:  63; 6HR MAX TEMP:  72;

EUFAULA        FAIR      65  58  78 CALM      30.10F
6HR MIN TEMP:  64; 6HR MAX TEMP:  73;

$$



USA.gov is the U.S. government's official web portal to all federal, state and local government web resources and services.